COSMOS 2251 DEB, 40792

Orbit data source: Space-Track

COSMOS 2251 DEB, 40792 is space debris in LEO originally from a launch on Wed, 16 Jun 1993 UTC launched from the Plesetsk Missile And Space Complex (PKMTR). The debris from Iridium 33, an American commercial communications satellite, has been tracked extensively since its accidental collision with the defunct Russian satellite Cosmos 2251 in 2009. This event, occurring at high speed in low Earth orbit (LEO), generated thousands of pieces of space debris, significantly increasing the risk of further collisions. The Iridium 33 debris cloud has impacted space traffic management and orbital debris mitigation strategies, making it a subject of ongoing study in space situational awareness.

Loading next visibility...
Identifier
40792, 1993-036BVV
Orbit
LEO
Country
Flag of CISCIS
Related business
Manufacturer
Unknown
Mission
Spacecraft
Bus & Motor
Unknown
Mass
Unknown
Launch date (UTC)
1993-06-16 (32 years ago)
Launch vehicle
Unknown
Launch site
Plesetsk Missile And Space Complex (PKMTR)
Object type
Payload
Rocket body
Debris
Shape & HBR
Unknown shape, 0.1 m
Radar Cross Section
Small (<0.1 m²)

Expand to show TLE details & history
Last TLE update: 1 day ago

TLE from 1 day ago
0 COSMOS 2251 DEB
1 40792U 93036BVV 25342.49249292  .00008654  00000-0  15277-2 0  9997
2 40792  74.0463  55.6567 0015783 162.4470 210.2984 14.67495133631223
Epoch: 2025-12-08T11:49Z
TLE epoch observation values (Epoch: 2025-12-08T11:49:11.388Z)
Latitude
12.12276°
Longitude
164.36993°
Altitude
680.573 km
Speed
7.512 km/s
True Right ascension
03h 56m 37s
True Declination
12° 03' 06"
Sunlit
Object was in full shadow at epoch
Visualization orbit readout
Latitude
Unknown
Longitude
Unknown
Altitude
Unknown
Speed
Unknown
Apparent Right ascension
Unknown
Apparent Declination
Unknown
Sunlit
N/A
Visualization observer readout
Local Sidereal Time
18:07:31
Azimuth
Unknown
Elevation
Unknown
Doppler factor
Unknown
Orbital elements
Apogee altitude
677.783 km
Perigee altitude
655.546 km
Semi-major axis
7,044.801 km
Eccentricity
0.00158
Inclination
74.0463°
RAAN
55.6567°
Arg. of periapsis
162.447°
True anomaly
210.20731°
Mean anomaly
210.2984°
Eccentric anomaly
210.25284°
Mean motion
3.67063 °/min
Orbital period
98.08 mins
BSTAR
0.0015277
Loading maneuver chart data...
Computing Atmospheric mass density...

Documentation

Showing up to 5 results
|